[[{"header":{"parameterUnit":"m.s-1","parameterCategory":1,"la1":30.2991,"la2":30.254,"lo1":-89.0895,"lo2":-89.0444,"dy":0.0017,"dx":0.0017,"nx":28,"ny":28,"refTime":"2025-03-15T21:00:00:Z","depth":0,"parameterNumber":2,"parameterNumberName":"U-component_of_WINDS"},"data":[0,0,0,0,0,0,0,0,0,0,0,0,0,0,0,0,0,0,0,0,0,0,0,0,0,0,0,0,0,0,0,0,0,0,0,0,0,0,0,0,0,0,0,0,0,0,0,0,0,0,0,0,0,0,0,0,0,0,1.363,1.3631,0,1.371,1.371,1.3711,1.3728,1.3727,1.3726,1.3726,1.3809,1.3812,1.3814,0,0,0,0,0,0,0,0,0,0,0,0,0,1.3496,1.3499,1.363,1.3631,1.3632,1.3709,1.371,1.3712,1.3728,1.3727,1.3726,1.3725,1.3808,1.3811,1.3815,0,0,0,0,0,0,0,0,0,0,0,0,0,1.3563,1.3499,1.363,1.3649,1.3652,1.3709,1.3711,1.3712,1.3728,1.3727,1.3726,1.3725,1.3807,1.3811,1.3815,1.3859,0,0,1.3828,1.383,0,0,0,0,0,0,0,0,1.3559,1.3568,1.3646,1.3648,1.3651,1.3708,1.3694,1.3761,1.3728,1.3699,1.3726,1.3725,1.3776,1.3783,1.38,1.3863,1.3867,1.3828,1.3831,1.3833,1.3834,0,0,0,0,0,0,0,1.3554,1.3564,1.3662,1.3647,1.365,1.3655,1.3664,1.3707,1.3742,1.3702,1.3703,1.3712,1.3777,1.3796,1.3802,1.3868,1.3828,1.3832,1.3834,1.3836,1.3974,1.3975,0,0,0,0,0,0,1.3546,1.3561,1.3659,1.3664,1.3602,1.3659,1.3668,1.369,1.3741,1.3748,1.3713,1.3712,1.3789,1.3797,1.3805,1.3862,1.3832,1.3836,1.3839,1.3973,1.3975,1.3976,0,0,0,0,0,0,1.3543,1.3555,1.3656,1.3613,1.3626,1.3662,1.3687,1.3693,1.3711,1.375,1.3756,1.3725,1.3789,1.3799,1.3846,1.3865,1.3838,1.3842,1.3972,1.3974,1.3975,1.3974,0,0,0,0,0,0,1.3539,1.3553,1.357,1.3613,1.3628,1.3695,1.3688,1.3695,1.3718,1.3718,1.3763,1.3769,1.3789,1.384,1.385,1.387,1.3845,1.397,1.3973,1.3975,1.3973,1.3976,1.3978,0,0,0,0,0,1.3534,1.3566,1.357,1.3582,1.3649,1.3696,1.3705,1.3726,1.3719,1.3736,1.3762,1.3768,1.3861,1.3844,1.3856,1.3878,1.3969,1.3972,1.3975,1.3972,1.3975,1.3978,0,0,0,0,0,0,1.3524,1.3572,1.3577,1.3624,1.3655,1.3698,1.3721,1.3728,1.3763,1.3762,1.3788,1.3798,1.3844,1.3865,1.3846,1.3924,1.3915,1.392,1.3908,1.3912,1.3915,1.3909,1.3849,0,0,0,0,0,1.3527,1.356,1.36,1.3638,1.3653,1.3684,1.3705,1.3719,1.3753,1.3767,1.3796,1.383,1.3867,1.3891,1.3927,1.3976,1.3987,1.3997,1.3999,1.4001,1.4006,1.4036,1.4041,1.3985,1.3985,1.3984,0,0,1.3534,1.3564,1.3583,1.3636,1.3663,1.3698,1.3695,1.3732,1.3759,1.3773,1.3819,1.3842,1.3882,1.393,1.3953,1.395,1.4024,1.4005,1.4006,1.401,1.4039,1.4045,1.4049,1.3986,1.3986,1.3986,0,0,1.3564,1.359,1.3624,1.3651,1.3691,1.3712,1.372,1.3762,1.3778,1.3825,1.3837,1.387,1.3932,1.3961,1.3983,1.4027,1.4035,1.4038,1.4053,1.4082,1.4086,1.4091,1.4108,1.4114,1.4042,1.4042,1.4042,0,1.3568,1.362,1.3641,1.3678,1.3702,1.3716,1.3753,1.3778,1.3828,1.3845,1.384,1.3921,1.3948,1.4005,1.4016,1.4033,1.4045,1.4033,1.4084,1.4088,1.4092,1.4109,1.4116,1.4043,1.4043,1.4043,1.4043,0,1.3623,1.366,1.3683,1.3731,1.3758,1.3794,1.3823,1.3847,1.3859,1.3881,1.393,1.3964,1.4008,1.4023,1.4034,1.4082,1.4079,1.4078,1.407,1.4098,1.4114,1.4121,1.4043,1.4043,1.4043,1.4043,0,0,1.3649,1.3709,1.3718,1.3741,1.3787,1.3816,1.3854,1.3897,1.3919,1.3953,1.3987,1.4041,1.4041,1.4067,1.4083,1.4108,1.4143,1.4105,1.4106,1.4112,1.42,1.4201,1.4208,1.4148,1.4149,1.4151,1.4198,0,1.3686,1.3753,1.3775,1.3832,1.3867,1.3882,1.3916,1.3948,1.397,1.4004,1.4029,1.4067,1.4064,1.408,1.4106,1.4133,1.4161,1.413,1.4182,1.4183,1.4172,1.4216,1.4217,1.4259,1.4204,1.4205,1.4206,0,1.3738,1.3773,1.3834,1.3878,1.3893,1.3923,1.3965,1.3997,1.4035,1.405,1.408,1.4093,1.4136,1.4124,1.4184,1.4162,1.4185,1.4202,1.4204,1.421,1.4197,1.4225,1.4273,1.428,1.4216,1.4215,1.4214,0,1.3752,1.3815,1.386,1.3879,1.3931,1.3952,1.3974,1.4012,1.4037,1.4075,1.4092,1.4134,1.4157,1.419,1.4216,1.4205,1.4274,1.4264,1.4289,1.4288,1.4303,1.4302,1.4357,1.4316,1.4315,1.4315,1.4315,0,1.3792,1.3829,1.3868,1.3895,1.3938,1.3963,1.4005,1.4029,1.4062,1.4096,1.4112,1.4143,1.4175,1.4211,1.4232,1.4279,1.4289,1.4303,1.4309,1.4303,1.4301,1.4318,1.4317,1.4317,1.4317,1.4316,1.4316,0,1.3815,1.3843,1.3893,1.3938,1.3951,1.398,1.402,1.4048,1.4071,1.4114,1.4125,1.4162,1.4206,1.4235,1.429,1.4304,1.4357,1.4361,1.4344,1.4347,1.437,1.4368,1.4439,1.445,1.44,1.4401,1.4401,0,1.3839,1.3868,1.3917,1.3941,1.3963,1.4001,1.4027,1.4054,1.4081,1.4128,1.4151,1.4196,1.4233,1.4303,1.4336,1.4379,1.4385,1.4407,1.4392,1.4386,1.4388,1.4386,1.439,1.441,1.441,1.441,1.4411,0,1.388,1.3893,1.3929,1.3971,1.4002,1.4037,1.4071,1.409,1.4123,1.4153,1.4198,1.4227,1.4285,1.433,1.4377,1.4402,1.4413,1.4415,1.4423,1.4418,1.4408,1.4416,1.4352,1.4413,1.4413,1.4413,1.4413,1.4413,1.3906,1.3933,1.3972,1.4013,1.4042,1.4074,1.4104,1.4131,1.4169,1.4218,1.4231,1.4279,1.4319,1.4383,1.4409,1.4448,1.4446,1.4457,1.446,1.4463,1.4464,1.4401,1.4456,1.4456,1.4456,1.4456,1.4456,0,1.3948,1.3975,1.4012,1.406,1.4093,1.41,1.4139,1.4167,1.4208,1.4244,1.4281,1.4334,1.4379,1.4415,1.4461,1.4485,1.4492,1.4497,1.4496,1.4502,1.4463,1.4452,1.4491,1.4491,1.4491,1.4491,1.4491,1.4491,1.3974,1.4021,1.4039,1.4101,1.4128,1.4174,1.4196,1.4227,1.4257,1.4315,1.4352,1.4375,1.4412,1.4462,1.4503,1.4513,1.453,1.4535,1.4546,1.4508,1.4504,1.4501,1.4491,1.4538,1.4538,1.4582,1.4582,1.4583]},{"header":{"parameterUnit":"m.s-1","parameterCategory":1,"la1":30.2991,"la2":30.254,"lo1":-89.0895,"lo2":-89.0444,"dy":0.0017,"dx":0.0017,"nx":28,"ny":28,"refTime":"2025-03-15T21:00:00:Z","depth":0,"parameterNumber":3,"parameterNumberName":"V-component_of_WINDS"},"data":[0,0,0,0,0,0,0,0,0,0,0,0,0,0,0,0,0,0,0,0,0,0,0,0,0,0,0,0,0,0,0,0,0,0,0,0,0,0,0,0,0,0,0,0,0,0,0,0,0,0,0,0,0,0,0,0,0,0,-2.6873,-2.6874,0,-2.6979,-2.698,-2.6981,-2.7071,-2.7072,-2.7073,-2.7074,-2.718,-2.7182,-2.7184,0,0,0,0,0,0,0,0,0,0,0,0,0,-2.6749,-2.6751,-2.6873,-2.6874,-2.6876,-2.6979,-2.698,-2.6982,-2.7071,-2.7072,-2.7073,-2.7074,-2.7179,-2.7182,-2.7184,0,0,0,0,0,0,0,0,0,0,0,0,0,-2.6823,-2.6751,-2.6873,-2.6933,-2.6939,-2.6978,-2.698,-2.6982,-2.7071,-2.7072,-2.7074,-2.7075,-2.7179,-2.7181,-2.7184,-2.7172,0,0,-2.7193,-2.7194,0,0,0,0,0,0,0,0,-2.6819,-2.6828,-2.6923,-2.6929,-2.6936,-2.7013,-2.6976,-2.7046,-2.707,-2.7021,-2.7074,-2.7076,-2.7123,-2.7131,-2.7147,-2.7177,-2.7182,-2.7193,-2.7195,-2.7196,-2.7197,0,0,0,0,0,0,0,-2.6814,-2.6824,-2.6915,-2.6924,-2.6932,-2.6955,-2.6967,-2.6989,-2.7062,-2.7025,-2.7032,-2.7043,-2.7127,-2.7144,-2.715,-2.7183,-2.7193,-2.7196,-2.7197,-2.7199,-2.7212,-2.7211,0,0,0,0,0,0,-2.68,-2.6819,-2.6912,-2.6918,-2.688,-2.6956,-2.6969,-2.6987,-2.7062,-2.7075,-2.7042,-2.7047,-2.7139,-2.7147,-2.7154,-2.7147,-2.7196,-2.7199,-2.72,-2.7214,-2.7212,-2.7211,0,0,0,0,0,0,-2.6797,-2.6807,-2.6907,-2.6871,-2.6885,-2.6956,-2.6975,-2.6988,-2.7006,-2.7075,-2.7088,-2.7046,-2.714,-2.715,-2.7168,-2.7152,-2.72,-2.7203,-2.7215,-2.7213,-2.7211,-2.7131,0,0,0,0,0,0,-2.6793,-2.6805,-2.6801,-2.687,-2.6887,-2.6918,-2.6974,-2.6989,-2.701,-2.7018,-2.7082,-2.7094,-2.7142,-2.7163,-2.7171,-2.7157,-2.7205,-2.7217,-2.7214,-2.7212,-2.7136,-2.7127,-2.7119,0,0,0,0,0,-2.6788,-2.6773,-2.68,-2.6811,-2.6883,-2.6917,-2.6927,-2.6983,-2.7009,-2.7005,-2.7051,-2.7092,-2.7153,-2.7164,-2.7174,-2.716,-2.7218,-2.7215,-2.7212,-2.7139,-2.7129,-2.712,0,0,0,0,0,0,-2.6698,-2.6783,-2.6814,-2.6821,-2.6861,-2.6932,-2.6929,-2.6969,-2.7002,-2.7008,-2.7076,-2.709,-2.71,-2.7132,-2.7143,-2.7155,-2.7191,-2.719,-2.7133,-2.7123,-2.7115,-2.7107,-2.7207,0,0,0,0,0,-2.668,-2.6701,-2.6774,-2.6773,-2.6792,-2.6857,-2.6874,-2.6914,-2.6959,-2.6976,-2.7022,-2.7064,-2.7093,-2.711,-2.714,-2.7142,-2.7158,-2.7137,-2.7129,-2.7122,-2.712,-2.7126,-2.7118,-2.7201,-2.7201,-2.7201,0,0,-2.664,-2.6689,-2.6698,-2.6756,-2.6792,-2.6813,-2.6871,-2.689,-2.6906,-2.6979,-2.6999,-2.7035,-2.7085,-2.7096,-2.7102,-2.7123,-2.7101,-2.7118,-2.7112,-2.7114,-2.7122,-2.7114,-2.7107,-2.7199,-2.7199,-2.7199,0,0,-2.658,-2.6619,-2.6624,-2.666,-2.6715,-2.6759,-2.676,-2.6827,-2.6854,-2.6875,-2.6931,-2.6952,-2.6999,-2.7034,-2.7058,-2.7016,-2.7056,-2.7024,-2.6981,-2.6986,-2.6979,-2.6974,-2.696,-2.6955,-2.7022,-2.7022,-2.7022,0,-2.6524,-2.6559,-2.6621,-2.6638,-2.6663,-2.6732,-2.6738,-2.6769,-2.6831,-2.6846,-2.6869,-2.6933,-2.6971,-2.6992,-2.6982,-2.6999,-2.7003,-2.7016,-2.6975,-2.6971,-2.6966,-2.6954,-2.6949,-2.7017,-2.7018,-2.7018,-2.7019,0,-2.6488,-2.6511,-2.6509,-2.6569,-2.6593,-2.6604,-2.6669,-2.6687,-2.6726,-2.6768,-2.6791,-2.6841,-2.6884,-2.6892,-2.6929,-2.6919,-2.693,-2.6963,-2.7001,-2.6953,-2.6943,-2.6939,-2.7011,-2.7013,-2.7014,-2.7015,0,0,-2.6371,-2.6469,-2.6467,-2.6496,-2.6564,-2.6583,-2.6599,-2.6643,-2.6657,-2.6698,-2.6714,-2.6755,-2.6787,-2.6814,-2.6856,-2.6861,-2.6827,-2.6894,-2.6896,-2.688,-2.6821,-2.6796,-2.6789,-2.6855,-2.6854,-2.6853,-2.6817,0,-2.6322,-2.6355,-2.6413,-2.6427,-2.6451,-2.6519,-2.6533,-2.6576,-2.6617,-2.6643,-2.6689,-2.6717,-2.6757,-2.6774,-2.6782,-2.6829,-2.6816,-2.6833,-2.687,-2.6871,-2.6855,-2.6784,-2.6756,-2.672,-2.6813,-2.6813,-2.6812,0,-2.6269,-2.6308,-2.6325,-2.6395,-2.6407,-2.6418,-2.6465,-2.6489,-2.6541,-2.657,-2.6603,-2.665,-2.6672,-2.6708,-2.6739,-2.6749,-2.6769,-2.6795,-2.6795,-2.68,-2.6838,-2.6787,-2.6709,-2.6703,-2.6806,-2.6807,-2.6807,0,-2.6183,-2.6241,-2.6259,-2.6282,-2.6363,-2.637,-2.6404,-2.6458,-2.6482,-2.6522,-2.6539,-2.6581,-2.6604,-2.6636,-2.6694,-2.6715,-2.672,-2.676,-2.6746,-2.6744,-2.6743,-2.6742,-2.6667,-2.6755,-2.6755,-2.6755,-2.6755,0,-2.6122,-2.613,-2.6222,-2.6233,-2.6245,-2.6313,-2.6323,-2.6363,-2.6411,-2.6432,-2.6493,-2.6511,-2.6588,-2.6615,-2.6661,-2.6681,-2.6691,-2.6716,-2.6728,-2.6711,-2.6707,-2.6724,-2.6728,-2.6754,-2.6754,-2.6754,-2.6755,0,-2.6027,-2.6089,-2.6114,-2.6191,-2.621,-2.6215,-2.6281,-2.6295,-2.6342,-2.6368,-2.6378,-2.645,-2.6486,-2.6548,-2.6601,-2.6632,-2.6644,-2.6664,-2.6626,-2.6634,-2.6617,-2.6618,-2.6549,-2.6544,-2.6634,-2.6633,-2.6633,0,-2.5984,-2.5992,-2.6071,-2.609,-2.6123,-2.6152,-2.6178,-2.6246,-2.627,-2.6333,-2.6339,-2.6381,-2.6418,-2.6472,-2.653,-2.6572,-2.6594,-2.6567,-2.66,-2.6583,-2.6595,-2.6593,-2.6595,-2.6559,-2.6557,-2.6556,-2.6555,0,-2.5901,-2.5933,-2.5967,-2.6014,-2.6043,-2.6082,-2.6125,-2.6137,-2.6216,-2.624,-2.6279,-2.6307,-2.6364,-2.6405,-2.6456,-2.6492,-2.6537,-2.6545,-2.6544,-2.6526,-2.6504,-2.6517,-2.6606,-2.6546,-2.6547,-2.6548,-2.6548,-2.6548,-2.5832,-2.5843,-2.5902,-2.5939,-2.5979,-2.6018,-2.6036,-2.6086,-2.612,-2.6172,-2.6211,-2.6248,-2.6303,-2.6377,-2.641,-2.6441,-2.6461,-2.6459,-2.6459,-2.6457,-2.6451,-2.65,-2.645,-2.645,-2.6451,-2.6451,-2.6451,0,-2.5753,-2.5795,-2.5829,-2.5888,-2.5918,-2.5961,-2.6011,-2.6033,-2.6065,-2.6113,-2.6149,-2.6195,-2.6236,-2.6299,-2.6345,-2.6357,-2.6379,-2.6367,-2.6366,-2.6375,-2.643,-2.6426,-2.6348,-2.6348,-2.6348,-2.6348,-2.6348,-2.6348,-2.5715,-2.5738,-2.5777,-2.5821,-2.5863,-2.59,-2.5926,-2.5963,-2.6003,-2.6052,-2.6087,-2.6128,-2.6182,-2.6234,-2.6274,-2.6292,-2.6306,-2.6287,-2.6311,-2.6361,-2.637,-2.6379,-2.6376,-2.6289,-2.6289,-2.6254,-2.6253,-2.6253]}]]